TimeEEST,TemperatureF,Dew PointF,Humidity,Sea Level PressureIn,VisibilityMPH,Wind Direction,Wind SpeedMPH,Gust SpeedMPH,PrecipitationIn,Events,Conditions,WindDirDegrees,DateUTC
12:20 AM,50.0,39.2,66,30.04,-9999.0,NE,6.9,-,N/A,,Clear,40,2013-04-06 21:20:00
12:50 AM,51.8,39.2,62,30.04,-9999.0,NE,1.2,-,N/A,,Clear,40,2013-04-06 21:50:00
1:20 AM,51.8,37.4,58,30.04,-9999.0,NNE,4.6,-,N/A,,Clear,20,2013-04-06 22:20:00
1:50 AM,48.2,37.4,66,30.04,-9999.0,NE,4.6,-,N/A,,Clear,40,2013-04-06 22:50:00
2:20 AM,44.6,37.4,76,30.04,-9999.0,NE,4.6,-,N/A,,Clear,50,2013-04-06 23:20:00
2:50 AM,46.4,37.4,71,30.04,-9999.0,NNE,2.3,-,N/A,,Clear,20,2013-04-06 23:50:00
3:00 AM,47,37,58,,12,NNE,2.3,,,,,20,2013-04-07 00:00:00
3:20 AM,44.6,37.4,76,30.04,-9999.0,NNE,4.6,-,N/A,,Clear,30,2013-04-07 00:20:00
3:50 AM,42.8,35.6,76,30.01,-9999.0,NNE,3.5,-,N/A,,Clear,30,2013-04-07 00:50:00
4:20 AM,44.6,35.6,71,30.01,-9999.0,NNE,4.6,-,N/A,,Clear,20,2013-04-07 01:20:00
4:50 AM,44.6,35.6,71,30.01,-9999.0,NE,2.3,-,N/A,,Clear,50,2013-04-07 01:50:00
5:20 AM,42.8,33.8,70,30.01,-9999.0,NNE,2.3,-,N/A,,Clear,30,2013-04-07 02:20:00
5:50 AM,41.0,35.6,81,30.01,-9999.0,Calm,Calm,-,N/A,,Clear,0,2013-04-07 02:50:00
6:20 AM,44.6,35.6,71,30.01,-9999.0,Variable,1.2,-,N/A,,Clear,0,2013-04-07 03:20:00
6:50 AM,44.6,35.6,71,30.01,-9999.0,Calm,Calm,-,N/A,,Clear,0,2013-04-07 03:50:00
7:20 AM,48.2,37.4,66,30.01,-9999.0,North,3.5,-,N/A,,Clear,10,2013-04-07 04:20:00
7:50 AM,50.0,37.4,62,29.98,-9999.0,NNE,2.3,-,N/A,,Clear,20,2013-04-07 04:50:00
8:20 AM,53.6,41.0,62,29.98,-9999.0,Calm,Calm,-,N/A,,Clear,0,2013-04-07 05:20:00
8:50 AM,59.0,42.8,55,29.98,-9999.0,Calm,Calm,-,N/A,,Clear,0,2013-04-07 05:50:00
9:00 AM,58,41,41,,12,Calm,Calm,,,,Clear,,2013-04-07 06:00:00
9:20 AM,62.6,41.0,45,29.98,-9999.0,Calm,Calm,-,N/A,,Clear,0,2013-04-07 06:20:00
9:50 AM,62.6,41.0,45,29.98,-9999.0,Calm,Calm,-,N/A,,Clear,0,2013-04-07 06:50:00
10:20 AM,66.2,42.8,43,29.95,-9999.0,Calm,Calm,-,N/A,,Clear,0,2013-04-07 07:20:00
10:50 AM,68.0,42.8,40,29.95,-9999.0,Calm,Calm,-,N/A,,Clear,0,2013-04-07 07:50:00
11:20 AM,69.8,39.2,33,29.95,-9999.0,Calm,Calm,-,N/A,,Clear,0,2013-04-07 08:20:00
11:50 AM,71.6,42.8,35,29.92,-9999.0,Variable,1.2,-,N/A,,Clear,0,2013-04-07 08:50:00
12:20 PM,73.4,41.0,31,29.89,-9999.0,Calm,Calm,-,N/A,,Clear,0,2013-04-07 09:20:00
12:50 PM,77.0,41.0,28,29.89,-9999.0,Variable,1.2,-,N/A,,Clear,0,2013-04-07 09:50:00
1:20 PM,78.8,37.4,23,29.86,-9999.0,Variable,1.2,-,N/A,,Clear,0,2013-04-07 10:20:00
1:50 PM,78.8,32.0,18,29.83,-9999.0,Variable,2.3,-,N/A,,Clear,0,2013-04-07 10:50:00
2:20 PM,80.6,24.8,13,29.83,-9999.0,SSW,12.7,-,N/A,,Clear,200,2013-04-07 11:20:00
2:50 PM,80.6,32.0,17,29.80,-9999.0,SSW,16.1,-,N/A,,Clear,210,2013-04-07 11:50:00
3:00 PM,81,28,7,,12,SSW,16.1,,,,Clear,210,2013-04-07 12:00:00
3:20 PM,80.6,24.8,13,29.80,-9999.0,SSW,16.1,-,N/A,,Clear,200,2013-04-07 12:20:00
3:50 PM,80.6,28.4,15,29.77,-9999.0,SSW,13.8,-,N/A,,Clear,200,2013-04-07 12:50:00
4:20 PM,78.8,30.2,17,29.77,-9999.0,South,13.8,-,N/A,,Clear,190,2013-04-07 13:20:00
4:50 PM,78.8,24.8,14,29.77,-9999.0,South,11.5,-,N/A,,Clear,190,2013-04-07 13:50:00
5:20 PM,77.0,23.0,13,29.77,-9999.0,South,9.2,-,N/A,,Clear,190,2013-04-07 14:20:00
5:50 PM,75.2,24.8,15,29.77,-9999.0,South,9.2,-,N/A,,Clear,180,2013-04-07 14:50:00
6:20 PM,75.2,23.0,14,29.74,-9999.0,South,11.5,-,N/A,,Clear,180,2013-04-07 15:20:00
6:50 PM,73.4,21.2,14,29.74,-9999.0,South,11.5,-,N/A,,Clear,170,2013-04-07 15:50:00
7:20 PM,71.6,23.0,16,29.74,-9999.0,SSE,17.3,-,N/A,,Clear,150,2013-04-07 16:20:00
7:50 PM,69.8,21.2,16,29.74,-9999.0,ESE,17.3,33.4,N/A,,Clear,120,2013-04-07 16:50:00
8:20 PM,69.8,17.6,14,29.71,-9999.0,SE,8.1,-,N/A,,Clear,140,2013-04-07 17:20:00
8:50 PM,69.8,15.8,13,29.71,-9999.0,South,10.4,-,N/A,,Clear,170,2013-04-07 17:50:00
9:00 PM,71,16,5,,12,South,10.4,,,,,170,2013-04-07 18:00:00
9:20 PM,66.2,17.6,15,29.71,-9999.0,SSE,2.3,-,N/A,,Clear,160,2013-04-07 18:20:00
9:25 PM,69.8,17.6,14,29.68,-9999.0,SSE,16.1,29.9,N/A,,Clear,160,2013-04-07 18:25:00
9:50 PM,69.8,15.8,13,29.68,-9999.0,SSE,20.7,32.2,N/A,,Clear,150,2013-04-07 18:50:00
10:20 PM,69.8,15.8,13,29.68,-9999.0,South,15.0,34.5,N/A,,Clear,170,2013-04-07 19:20:00
10:50 PM,68.0,15.8,13,29.68,-9999.0,SE,9.2,-,N/A,,Clear,130,2013-04-07 19:50:00
11:20 PM,68.0,19.4,16,29.68,-9999.0,SSE,13.8,-,N/A,,Clear,150,2013-04-07 20:20:00
11:50 PM,68.0,21.2,17,29.68,-9999.0,SSE,9.2,21.9,N/A,,Clear,160,2013-04-07 20:50:00